Find Kosmos-1851

NORAD ID: 18103 Int'l Des: 1987-050 Owner: PVO Country: SU unknown
MEOELLIPTICALHEO_ELLIPTICALSEMI_SYNC

当前视图

正在加载3D地球...

关于 Kosmos-1851

正在加载描述...

即将过境

Passes for default location (London). Set your location on the main map for personalized predictions.

高度历史

Loading altitude history...

两行轨道根数

1 18103U 87050A 26141.24958769 .00000047 00000-0 00000-0 0 9998
2 18103 70.9216 188.5882 4637444 39.8974 5.2698 2.00415973285255
Epoch: May 21, 2026 • Age: 223 hours

当前状态

高度 31054.9 km
速度 2.51 km/s
星下点 -52.66°S, 43.84°W
发射日期 Jun 12, 1987
运行时间 38.9 years
类型 other

技术详情

分类 Payload
质量 1250.00 kg
干质量 1150.00 kg
总质量 1250.00 kg
长度 4.00 m
直径 2.00 m
跨度 5.00 m
形状 Cyl + 2 Pan
制造商 NPOL/KOMET
平台类型 Oko
阶段状态 In Orbit
所有者/国家 PVO/SU

Most Searched